Hutchinson, MN

4:29 PM CDT on October 17, 2017 (GMT -0500)
Hutchinson Municipal-Butler

Weather History for KHCD - April, 2014

Change the Weather History Date:

Monday, April 21, 2014

  Actual Average Record
Temperature  
Mean Temperature 52 °F -  
Max Temperature 62 °F 61 °F 95 °F (1980)
Min Temperature 43 °F 37 °F 1 °F (2004)
Degree Days  
Heating Degree Days 12    
Growing Degree Days 2 (Base 50)    
Moisture  
Dew Point 44 °F    
Average Humidity 64    
Maximum Humidity 97    
Minimum Humidity 46    
Precipitation  
Precipitation 0.30 in - - ()
Sea Level Pressure  
Sea Level Pressure 30.00 in    
Wind  
Wind Speed 10 mph (NW)    
Max Wind Speed 25 mph    
Max Gust Speed 36 mph    
Visibility 10 miles    
Events Rain , Thunderstorm    
Averages and records for this station are not official NWS values.
T = Trace of Precipitation, MM = Missing Value Source: NWS Daily Summary

Daily Weather History Graph

Daily Weather History Graph

Search for Another Location

Airport or City:

Trip Planner

Search our weather history database for the weather conditions in past years. The results will help you decide how hot, cold, wet, or windy it might be!

Date:

Astronomy

Apr. 21, 2014 Rise Set
Actual Time 6:22 AM CDT 8:10 PM CDT
Civil Twilight 5:51 AM CDT 8:41 PM CDT
Nautical Twilight 5:13 AM CDT 9:19 PM CDT
Astronomical Twilight 4:32 AM CDT 10:01 PM CDT
Moon 1:44 AM CDT (4/21) 11:47 AM CDT (4/21)
Length of Visible Light 14h 49m
Length of Day
13h 47m
Waning Gibbous, 57% of the Moon is Illuminated
Apr 21
Waning Gibbous
Apr 22
Last Quarter
Apr 29
New
May 6
First Quarter
May 14
Full

Hourly Weather History & Observations

Time (CDT) Temp. Windchill Dew Point Humidity Pressure Visibility Wind Dir Wind Speed Gust Speed Precip Events Conditions
12:13 AM 58.1 °F - 46.4 °F 65% 29.94 in 10.0 mi ENE 4.6 mph - N/A   Mostly Cloudy
12:33 AM 56.7 °F - 45.0 °F 65% 29.94 in 10.0 mi East 4.6 mph - N/A   Overcast
12:53 AM 55.4 °F - 46.9 °F 73% 29.93 in 10.0 mi ESE 3.5 mph - N/A   Overcast
1:13 AM 56.7 °F - 46.0 °F 68% 29.92 in 10.0 mi East 6.9 mph - N/A   Mostly Cloudy
1:33 AM 55.4 °F - 47.3 °F 74% 29.92 in 10.0 mi ENE 5.8 mph - N/A Thunderstorm Scattered Clouds
1:53 AM 57.4 °F - 48.4 °F 72% 29.92 in 10.0 mi ENE 10.4 mph - N/A Thunderstorm Thunderstorm
2:13 AM 57.6 °F - 51.6 °F 81% 29.91 in 10.0 mi SE 6.9 mph - N/A Thunderstorm Thunderstorm
2:33 AM 58.1 °F - 53.6 °F 85% 29.90 in 10.0 mi SE 6.9 mph - N/A Thunderstorm Thunderstorm
2:53 AM 58.6 °F - 54.0 °F 84% 29.92 in 10.0 mi North 5.8 mph - N/A   Overcast
3:13 AM 57.7 °F - 53.6 °F 86% 29.90 in 10.0 mi SE 6.9 mph - N/A Thunderstorm Thunderstorm
3:33 AM 57.7 °F - 53.8 °F 87% 29.92 in 10.0 mi NW 16.1 mph 19.6 mph N/A Thunderstorm Thunderstorm
3:51 AM 58.8 °F - 55.2 °F 88% 29.90 in 2.0 mi East 9.2 mph - 0.14 in Rain , Thunderstorm Heavy Thunderstorms and Rain
4:13 AM 58.6 °F - 54.7 °F 87% 29.89 in 5.0 mi South 6.9 mph - 0.14 in Rain , Thunderstorm Rain
4:33 AM 57.2 °F - 53.2 °F 87% 29.87 in 7.0 mi SE 3.5 mph - 0.16 in Rain , Thunderstorm Thunderstorms and Rain
4:53 AM 56.5 °F - 52.9 °F 88% 29.88 in 10.0 mi SSE 3.5 mph - 0.16 in   Mostly Cloudy
5:12 AM 59.0 °F - 54.1 °F 84% 29.89 in 10.0 mi SSE 5.8 mph - N/A   Clear
5:33 AM 59.4 °F - 54.9 °F 85% 29.94 in 10.0 mi NW 11.5 mph - N/A   Mostly Cloudy
5:53 AM 58.1 °F - 54.9 °F 89% 29.94 in 10.0 mi NW 3.5 mph - N/A Thunderstorm Thunderstorm
6:13 AM 57.2 °F - 54.9 °F 92% 29.94 in 10.0 mi WSW 3.5 mph - N/A Thunderstorm Overcast
6:33 AM 56.3 °F - 54.5 °F 94% 29.94 in 7.0 mi West 3.5 mph - N/A   Overcast
6:53 AM 56.3 °F - 54.7 °F 94% 29.94 in 7.0 mi Calm Calm - N/A   Overcast
7:13 AM 54.9 °F - 54.1 °F 97% 29.95 in 3.0 mi WNW 4.6 mph - N/A   Overcast
7:33 AM 56.5 °F - 53.4 °F 89% 29.96 in 10.0 mi NW 4.6 mph - N/A   Overcast
7:53 AM 56.8 °F - 52.0 °F 84% 29.97 in 10.0 mi WNW 4.6 mph - N/A   Overcast
8:13 AM 57.0 °F - 49.3 °F 75% 29.97 in 10.0 mi NW 5.8 mph - N/A   Overcast
8:33 AM 57.2 °F - 47.5 °F 70% 29.97 in 10.0 mi NW 5.8 mph - N/A   Overcast
8:53 AM 58.3 °F - 47.5 °F 67% 29.98 in 10.0 mi NW 5.8 mph - N/A   Mostly Cloudy
9:13 AM 58.1 °F - 47.7 °F 68% 29.98 in 10.0 mi WNW 5.8 mph - N/A   Scattered Clouds
9:33 AM 61.0 °F - 45.7 °F 57% 29.98 in 10.0 mi NW 10.4 mph - N/A   Clear
9:53 AM 62.6 °F - 43.2 °F 49% 29.98 in 10.0 mi NW 17.3 mph 26.5 mph N/A   Clear
10:13 AM 62.6 °F - 45.0 °F 52% 29.99 in 10.0 mi West 16.1 mph - N/A   Clear
10:33 AM 62.6 °F - 42.8 °F 48% 29.99 in 10.0 mi WNW 12.7 mph 23.0 mph N/A   Clear
10:53 AM 62.6 °F - 41.5 °F 46% 29.99 in 10.0 mi NW 17.3 mph 24.2 mph N/A   Clear
11:13 AM 61.9 °F - 43.3 °F 51% 30.00 in 10.0 mi West 18.4 mph 23.0 mph N/A   Clear
11:32 AM 62.4 °F - 42.1 °F 47% 30.00 in 10.0 mi NW 23.0 mph 27.6 mph N/A   Clear
11:53 AM 62.2 °F - 43.9 °F 51% 30.00 in 10.0 mi NW 20.7 mph 26.5 mph N/A   Clear
12:13 PM 61.7 °F - 44.4 °F 53% 30.00 in 10.0 mi NW 17.3 mph 27.6 mph N/A   Clear
12:32 PM 61.7 °F - 44.6 °F 53% 30.00 in 10.0 mi NW 21.9 mph 26.5 mph N/A   Clear
12:53 PM 61.7 °F - 43.3 °F 51% 30.00 in 10.0 mi WNW 20.7 mph 29.9 mph N/A   Clear
1:13 PM 62.2 °F - 43.7 °F 51% 29.99 in 10.0 mi NW 20.7 mph 28.8 mph N/A   Clear
1:33 PM 62.6 °F - 45.5 °F 54% 30.00 in 10.0 mi WNW 19.6 mph 27.6 mph N/A   Clear
1:53 PM 62.4 °F - 45.0 °F 53% 30.00 in 10.0 mi WNW 19.6 mph 31.1 mph N/A   Clear
2:13 PM 62.1 °F - 44.8 °F 53% 30.01 in 10.0 mi NW 24.2 mph 29.9 mph N/A   Clear
2:33 PM 61.2 °F - 43.2 °F 52% 30.02 in 10.0 mi WNW 21.9 mph 32.2 mph N/A   Clear
2:53 PM 61.0 °F - 43.5 °F 53% 30.02 in 10.0 mi NW 25.3 mph 31.1 mph N/A   Clear
3:13 PM 59.7 °F - 41.0 °F 50% 30.02 in 10.0 mi NW 24.2 mph 31.1 mph N/A   Clear
3:32 PM 57.9 °F - 41.0 °F 53% 30.03 in 10.0 mi NW 21.9 mph 35.7 mph N/A   Clear
3:53 PM 57.6 °F - 40.8 °F 54% 30.04 in 10.0 mi NW 19.6 mph 32.2 mph N/A   Clear
4:13 PM 57.2 °F - 39.7 °F 52% 30.04 in 10.0 mi NW 18.4 mph 31.1 mph N/A   Clear
4:33 PM 58.1 °F - 39.9 °F 51% 30.04 in 10.0 mi NW 23.0 mph 31.1 mph N/A   Clear
4:53 PM 57.7 °F - 38.7 °F 49% 30.04 in 10.0 mi NW 24.2 mph 31.1 mph N/A   Clear
5:13 PM 57.2 °F - 37.4 °F 48% 30.04 in 10.0 mi NW 23.0 mph 32.2 mph N/A   Clear
5:33 PM 57.6 °F - 37.8 °F 48% 30.04 in 10.0 mi NNW 19.6 mph 25.3 mph N/A   Clear
5:52 PM 57.2 °F - 36.7 °F 46% 30.04 in 10.0 mi NW 19.6 mph 28.8 mph N/A   Clear
6:13 PM 56.7 °F - 36.3 °F 47% 30.05 in 10.0 mi NNW 21.9 mph 28.8 mph N/A   Clear
6:33 PM 55.9 °F - 35.4 °F 46% 30.05 in 10.0 mi NW 21.9 mph 34.5 mph N/A   Clear
6:53 PM 55.4 °F - 36.0 °F 48% 30.05 in 10.0 mi NW 21.9 mph 26.5 mph N/A   Clear
7:13 PM 54.3 °F - 34.7 °F 48% 30.06 in 10.0 mi NW 21.9 mph 27.6 mph N/A   Clear
7:33 PM 53.1 °F - 35.1 °F 50% 30.07 in 10.0 mi NW 13.8 mph - N/A   Clear
7:53 PM 52.0 °F - 34.7 °F 52% 30.07 in 10.0 mi NW 16.1 mph 24.2 mph N/A   Clear
8:13 PM 50.9 °F - 33.8 °F 52% 30.07 in 10.0 mi NW 16.1 mph - N/A   Clear
8:33 PM 49.6 °F - 33.6 °F 54% 30.08 in 10.0 mi NW 16.1 mph 21.9 mph N/A   Clear
8:52 PM 48.4 °F - 34.3 °F 58% 30.09 in 10.0 mi NW 11.5 mph - N/A   Clear
9:13 PM 48.2 °F - 34.0 °F 58% 30.10 in 10.0 mi NW 15.0 mph - N/A   Clear
9:33 PM 47.3 °F - 34.3 °F 61% 30.11 in 10.0 mi NW 10.4 mph - N/A   Clear
9:53 PM 46.4 °F 41.5 °F 34.3 °F 63% 30.11 in 10.0 mi NW 10.4 mph - N/A   Clear
10:13 PM 45.9 °F 40.8 °F 34.2 °F 64% 30.12 in 10.0 mi NW 10.4 mph - N/A   Clear
10:33 PM 45.3 °F 40.1 °F 34.2 °F 65% 30.12 in 10.0 mi NW 10.4 mph - N/A   Clear
10:53 PM 45.5 °F 39.6 °F 33.8 °F 64% 30.11 in 10.0 mi NW 12.7 mph - N/A   Clear
11:13 PM 45.1 °F 39.5 °F 33.8 °F 65% 30.12 in 10.0 mi NW 11.5 mph - N/A   Clear
11:33 PM 43.9 °F 38.8 °F 34.2 °F 69% 30.12 in 10.0 mi NW 9.2 mph - N/A   Clear
11:53 PM 43.7 °F 39.1 °F 33.8 °F 68% 30.12 in 10.0 mi NW 8.1 mph - N/A   Clear